Tracking 35237 objects as of 6-Sep-2026
HD Live streaming from Space Station
objects crossing your sky now

STARLINK-30274

Track STARLINK-30274 now!
10-day predictions
STARLINK-30274 is classified as:


NORAD ID: 57672
Int'l Code: 2023-124K
Launch date: August 22, 2023
Source: United States (US)
Launch site: AIR FORCE WESTERN TEST RANGE (AFWTR)
Your satellite tracking list
Your tracking list is empty




NASA's NSSDC Master Catalog

Two Line Element Set (TLE):
1 57672U 23124K   26248.99300859 -.00000533  00000-0 -46658-5 0  9991
2 57672  53.1600  87.2006 0000770 106.2718 253.8369 15.34390286171204
Source of the keplerian elements: AFSPC